Location: Songkhla
(7.2000°N, 100.6000°E)
Time: 06:06:43
(UTC+07:00)

XW-2D - Pass Details

Date: 29 July 2021
Orbit: 505 x 522 km, 97.5° (Epoch: 17 September)

Event Time Altitude Azimuth Distance (km) Brightness Sun altitude
Rises 05:06:48 0° 41° (NE) 2,629 ? -15.7°
Reaches altitude 10° 05:09:41 10° 66° (ENE) 1,747 ? -15.0°
Maximum altitude 05:11:48 15° 100° (E) 1,485 ? -14.6°
Drops below altitude 10° 05:13:55 10° 134° (SE) 1,753 ? -14.1°
Sets 05:16:48 0° 159° (SSE) 2,643 ? -13.4°
